• In Österreich
  • Länderverzeichnis
  • Für 7 Tage
  • Wassertemperatur
  • Satellitenkarten
  • Wetterkarte
  • News
  • Widgets
  • user-avatar
    Anmelden

    Stündliche Wetter Trzebinia

    Heute, 23 Juli, Montag

    Zeit Temperatur Niederschläge Wind Luftdruck Luftfeuchtigkeit
    00:00 +19°C° 0 mm 2 m/S 727 mmHg 75%
    01:00 +19°C° 0 mm 2 m/S 727 mmHg 77%
    02:00 +18°C° 0 mm 2 m/S 727 mmHg 79%
    03:00 +18°C° 0 mm 2 m/S 727 mmHg 82%
    04:00 +18°C° 0 mm 1 m/S 727 mmHg 84%
    05:00 +19°C° 0 mm 2 m/S 728 mmHg 80%
    06:00 +20°C° 0 mm 2 m/S 728 mmHg 77%
    07:00 +23°C° 0 mm 2 m/S 728 mmHg 73%
    08:00 +24°C° 0,2 mm 3 m/S 728 mmHg 67%
    09:00 +25°C° 0,2 mm 3 m/S 728 mmHg 61%
    10:00 +26°C° 0,2 mm 4 m/S 728 mmHg 54%
    11:00 +27°C° 0,4 mm 4 m/S 728 mmHg 54%
    12:00 +27°C° 0,4 mm 4 m/S 728 mmHg 53%
    13:00 +28°C° 0,4 mm 5 m/S 728 mmHg 52%
    14:00 +27°C° 0,3 mm 5 m/S 728 mmHg 53%
    15:00 +27°C° 0,3 mm 5 m/S 728 mmHg 53%
    16:00 +27°C° 0,3 mm 5 m/S 728 mmHg 54%
    17:00 +26°C° 0 mm 4 m/S 728 mmHg 58%
    18:00 +23°C° 0 mm 4 m/S 728 mmHg 63%
    19:00 +22°C° 0 mm 3 m/S 728 mmHg 67%
    20:00 +21°C° 0 mm 3 m/S 728 mmHg 69%
    21:00 +20°C° 0 mm 3 m/S 729 mmHg 72%
    22:00 +19°C° 0 mm 3 m/S 729 mmHg 74%
    23:00 +18°C° 0 mm 2 m/S 729 mmHg 76%

    Morgen, 24 Juli, Dienstag

    Zeit Temperatur Niederschläge Wind Luftdruck Luftfeuchtigkeit
    00:00 +18°C° 0 mm 2 m/S 729 mmHg 79%
    01:00 +17°C° 0 mm 2 m/S 729 mmHg 81%
    02:00 +17°C° 0 mm 2 m/S 729 mmHg 83%
    03:00 +16°C° 0 mm 2 m/S 729 mmHg 85%
    04:00 +16°C° 0 mm 2 m/S 729 mmHg 87%
    05:00 +17°C° 0 mm 2 m/S 729 mmHg 82%
    06:00 +19°C° 0 mm 2 m/S 729 mmHg 77%
    07:00 +20°C° 0 mm 3 m/S 729 mmHg 71%
    08:00 +22°C° 0 mm 3 m/S 729 mmHg 65%
    09:00 +23°C° 0 mm 4 m/S 729 mmHg 59%
    10:00 +26°C° 0 mm 4 m/S 730 mmHg 53%
    11:00 +26°C° 0 mm 4 m/S 729 mmHg 51%
    12:00 +27°C° 0 mm 4 m/S 729 mmHg 49%
    13:00 +28°C° 0 mm 4 m/S 729 mmHg 47%
    14:00 +28°C° 0 mm 4 m/S 729 mmHg 48%
    15:00 +28°C° 0 mm 4 m/S 728 mmHg 49%
    16:00 +27°C° 0 mm 4 m/S 728 mmHg 50%
    17:00 +26°C° 0 mm 4 m/S 728 mmHg 56%
    18:00 +25°C° 0 mm 3 m/S 728 mmHg 62%
    19:00 +23°C° 0 mm 2 m/S 728 mmHg 68%
    20:00 +21°C° 0 mm 2 m/S 728 mmHg 72%
    21:00 +20°C° 0 mm 2 m/S 728 mmHg 75%
    22:00 +19°C° 0 mm 2 m/S 729 mmHg 79%
    23:00 +19°C° 0 mm 1 m/S 728 mmHg 81%

    übermorgen, 25 Juli, Mittwoch

    Zeit Temperatur Niederschläge Wind Luftdruck Luftfeuchtigkeit
    00:00 +19°C° 0 mm 1 m/S 728 mmHg 83%
    01:00 +18°C° 0 mm 1 m/S 728 mmHg 85%
    02:00 +18°C° 0 mm 1 m/S 728 mmHg 86%
    03:00 +18°C° 0 mm 1 m/S 728 mmHg 87%
    04:00 +16°C° 0 mm 1 m/S 728 mmHg 89%
    05:00 +19°C° 0 mm 1 m/S 729 mmHg 84%
    06:00 +19°C° 0 mm 2 m/S 729 mmHg 79%
    07:00 +21°C° 0 mm 2 m/S 729 mmHg 75%
    08:00 +23°C° 0 mm 2 m/S 729 mmHg 69%
    09:00 +24°C° 0 mm 3 m/S 729 mmHg 63%
    10:00 +26°C° 0 mm 3 m/S 729 mmHg 57%
    11:00 +27°C° 0 mm 3 m/S 729 mmHg 53%
    12:00 +27°C° 0 mm 3 m/S 729 mmHg 49%
    13:00 +28°C° 0 mm 3 m/S 729 mmHg 46%
    14:00 +28°C° 0 mm 3 m/S 729 mmHg 46%
    15:00 +28°C° 0 mm 4 m/S 728 mmHg 46%
    16:00 +28°C° 0 mm 4 m/S 728 mmHg 46%
    17:00 +26°C° 0 mm 3 m/S 728 mmHg 53%
    18:00 +25°C° 0 mm 3 m/S 728 mmHg 59%
    19:00 +23°C° 0 mm 2 m/S 728 mmHg 66%
    20:00 +23°C° 0 mm 2 m/S 728 mmHg 69%
    21:00 +21°C° 0 mm 2 m/S 729 mmHg 71%
    22:00 +20°C° 0 mm 2 m/S 729 mmHg 74%
    23:00 +20°C° 0 mm 2 m/S 729 mmHg 77%

    26 Juli, Donnerstag

    Zeit Temperatur Niederschläge Wind Luftdruck Luftfeuchtigkeit
    00:00 +19°C° 0 mm 2 m/S 729 mmHg 80%
    01:00 +20°C° 0 mm 1 m/S 729 mmHg 83%
    02:00 +19°C° 0,1 mm 1 m/S 729 mmHg 86%
    03:00 +19°C° 0,1 mm 1 m/S 729 mmHg 89%
    04:00 +19°C° 0,1 mm 1 m/S 729 mmHg 93%
    05:00 +19°C° 0,1 mm 2 m/S 729 mmHg 91%
    06:00 +20°C° 0,1 mm 2 m/S 729 mmHg 89%
    07:00 +21°C° 0,1 mm 2 m/S 729 mmHg 86%
    08:00 +23°C° 0,7 mm 2 m/S 729 mmHg 83%
    09:00 +24°C° 0,7 mm 3 m/S 729 mmHg 80%
    10:00 +25°C° 0,7 mm 3 m/S 729 mmHg 76%
    11:00 +25°C° 1,1 mm 3 m/S 729 mmHg 73%
    12:00 +26°C° 1,1 mm 3 m/S 729 mmHg 71%
    13:00 +27°C° 1,1 mm 3 m/S 729 mmHg 68%
    14:00 +27°C° 0,7 mm 3 m/S 729 mmHg 68%
    15:00 +27°C° 0,7 mm 3 m/S 729 mmHg 69%
    16:00 +27°C° 0,7 mm 3 m/S 729 mmHg 69%
    17:00 +26°C° 0,3 mm 2 m/S 729 mmHg 74%
    18:00 +25°C° 0,3 mm 2 m/S 729 mmHg 79%
    19:00 +24°C° 0,3 mm 2 m/S 729 mmHg 84%
    20:00 +23°C° 0,1 mm 1 m/S 729 mmHg 86%
    21:00 +22°C° 0,1 mm 1 m/S 729 mmHg 89%
    22:00 +21°C° 0,1 mm 1 m/S 729 mmHg 91%
    23:00 +21°C° 0 mm 1 m/S 729 mmHg 92%

    27 Juli, Freitag

    Zeit Temperatur Niederschläge Wind Luftdruck Luftfeuchtigkeit
    00:00 +21°C° 0 mm 1 m/S 729 mmHg 92%
    01:00 +20°C° 0 mm 1 m/S 728 mmHg 93%
    02:00 +20°C° 0 mm 1 m/S 728 mmHg 93%
    03:00 +20°C° 0 mm 1 m/S 728 mmHg 94%
    04:00 +20°C° 0 mm 1 m/S 728 mmHg 94%
    05:00 +21°C° 0 mm 1 m/S 728 mmHg 90%
    06:00 +22°C° 0 mm 1 m/S 729 mmHg 87%
    07:00 +24°C° 0 mm 1 m/S 729 mmHg 84%
    08:00 +25°C° 0,4 mm 2 m/S 729 mmHg 78%
    09:00 +26°C° 0,4 mm 2 m/S 729 mmHg 73%
    10:00 +28°C° 0,4 mm 3 m/S 729 mmHg 67%
    11:00 +28°C° 0,5 mm 3 m/S 729 mmHg 64%
    12:00 +29°C° 0,5 mm 3 m/S 728 mmHg 62%
    13:00 +30°C° 0,5 mm 3 m/S 728 mmHg 59%
    14:00 +30°C° 1 mm 3 m/S 728 mmHg 61%
    15:00 +29°C° 1 mm 3 m/S 728 mmHg 63%
    16:00 +29°C° 1 mm 3 m/S 728 mmHg 66%
    17:00 +28°C° 0,6 mm 3 m/S 728 mmHg 70%
    18:00 +27°C° 0,6 mm 3 m/S 728 mmHg 75%
    19:00 +25°C° 0,6 mm 2 m/S 728 mmHg 80%
    20:00 +25°C° 0,7 mm 2 m/S 728 mmHg 83%
    21:00 +24°C° 0,7 mm 2 m/S 728 mmHg 86%
    22:00 +23°C° 0,7 mm 2 m/S 728 mmHg 89%
    23:00 +23°C° 0,1 mm 2 m/S 728 mmHg 90%

    28 Juli, Samstag

    Zeit Temperatur Niederschläge Wind Luftdruck Luftfeuchtigkeit
    00:00 +21°C° 0,1 mm 2 m/S 727 mmHg 91%
    01:00 +21°C° 0,1 mm 2 m/S 727 mmHg 92%
    02:00 +21°C° 0 mm 2 m/S 727 mmHg 93%
    03:00 +20°C° 0 mm 2 m/S 727 mmHg 93%
    04:00 +20°C° 0 mm 2 m/S 727 mmHg 94%
    05:00 +21°C° 0 mm 2 m/S 727 mmHg 91%
    06:00 +23°C° 0 mm 2 m/S 727 mmHg 88%
    07:00 +24°C° 0 mm 2 m/S 728 mmHg 85%
    08:00 +25°C° 0,1 mm 3 m/S 728 mmHg 78%
    09:00 +27°C° 0,1 mm 3 m/S 728 mmHg 71%
    10:00 +28°C° 0,1 mm 3 m/S 728 mmHg 64%
    11:00 +29°C° 0 mm 3 m/S 727 mmHg 60%
    12:00 +30°C° 0 mm 3 m/S 727 mmHg 57%
    13:00 +30°C° 0 mm 3 m/S 727 mmHg 53%
    14:00 +30°C° 0,2 mm 3 m/S 727 mmHg 54%
    15:00 +30°C° 0,2 mm 3 m/S 727 mmHg 55%
    16:00 +30°C° 0,2 mm 3 m/S 727 mmHg 56%
    17:00 +29°C° 0,1 mm 2 m/S 727 mmHg 62%
    18:00 +27°C° 0,1 mm 2 m/S 727 mmHg 67%
    19:00 +26°C° 0,1 mm 2 m/S 727 mmHg 73%
    20:00 +25°C° 0 mm 2 m/S 727 mmHg 76%
    21:00 +24°C° 0 mm 1 m/S 728 mmHg 79%
    22:00 +23°C° 0 mm 1 m/S 728 mmHg 81%
    23:00 +23°C° 0 mm 1 m/S 728 mmHg 83%
    Mehr zeigen